Regional Weather Roundup
Issued by NWS Kansas City/Pleasant Hill, MO

Home | Current Version | Previous Version | Text Only | Print | Product List | Glossary On
Versions: 1 2 3 4 5 6 7 8 9 10 11 12 13 14 15 16 17 18 19 20 21 22 23 24 25 26 27 28 29 30 31 32 33 34 35 36 37 38 39 40 41 42 43 44 45 46 47 48 49 50
000
ASUS43 KEAX 280810
RWREAX

WEATHER ROUNDUP FOR EASTERN KANSAS AND NORTHWEST MISSOURI
NATIONAL WEATHER SERVICE KANSAS CITY/PLEASANT HILL MO
300 AM CDT TUE JUL 28 2015

KSZ040-057-103>105-MOZ028-029-037-043-280900-
...KANSAS CITY METROPOLITAN AREA...

CITY           SKY/WX    TMP DP  RH WIND       PRES   REMARKS
K.C. INTL      CLEAR     77  74  90 SE9       29.88F
K.C. DOWNTOWN  CLEAR     80  75  84 E6        29.87F
LEES SUMMIT    CLEAR     80  74  81 SE5       29.90F
OLATHE - IXD   CLEAR     79  74  84 S8        29.89F
OLATHE - OJC   CLEAR     77  73  87 S6        29.89S
LAWRENCE       CLEAR     79  73  82 S7        29.86F

$$

MOZ001>008-011>017-020>025-030>033-038>040-044>046-053-054-280900-
...NORTHERN AND CENTRAL MISSOURI...

CITY           SKY/WX    TMP DP  RH WIND       PRES   REMARKS
ST. JOSEPH     CLEAR     76  72  87 CALM      29.87F
WARRENSBURG    CLEAR     77  73  88 CALM      29.89F
WHITEMAN AFB   CLEAR     78  75  90 SE7       29.89F
CLINTON        CLEAR     81  77  89 S3        29.90F
SEDALIA        CLEAR     77  72  84 SE5       29.92F
WARSAW         NOT AVBL
CHILLICOTHE      N/A     76  70  82 SE6       29.91F
KIRKSVILLE     MOCLDY    73  69  87 S6        29.94S

$$

MOZ041-047>049-056>058-063>065-088>090-097-280900-
...EASTERN AND SOUTHERN MISSOURI...

CITY           SKY/WX    TMP DP  RH WIND       PRES   REMARKS
ST. LOUIS INTL MOCLDY    78  70  76 CALM      29.94F
SPIRIT OF STL  MOCLDY    74  73  97 CALM      29.92F
COLUMBIA       CLEAR     73  71  93 SE6       29.93F
JEFFERSON CITY PTCLDY    75  71  87 SE3       29.91F
ROLLA          MOCLDY    75  73  93 SE10      29.94F
OSAGE BEACH    PTCLDY    77  72  83 SE5       29.93F
SPRINGFIELD    CLEAR     80  74  81 S8        29.94F
BRANSON        CLEAR     77  72  83 CALM      29.97F
JOPLIN         CLEAR     80  73  79 S10       29.92S
WEST PLAINS    CLEAR     78  72  81 SW6       29.97F

$$

IAZ060-094-KSZ022-034>040-054-083-096-NEZ052-066-093-280900-
...KANSAS...SOUTHEAST NEBRASKA AND IOWA...

CITY           SKY/WX    TMP DP  RH WIND       PRES   REMARKS
TOPEKA         CLEAR     81  73  76 S7        29.85F
MANHATTAN      CLEAR     82  72  71 S9        29.83F
EMPORIA        CLEAR     77  73  87 S13       29.87F
CHANUTE        CLEAR     79  75  87 S7        29.88F
WICHITA        CLEAR     81  70  69 S12       29.87S
OMAHA          CLEAR     77  71  82 S13       29.81F
LINCOLN        CLEAR     80  72  76 S14       29.78F
FALLS CITY     CLEAR     75  73  93 SE7       29.83F
LAMONI         CLEAR     73  69  87 SE9       29.89F
DES MOINES     MOCLDY    74  70  87 SE7       29.87F

$$



USA.gov is the U.S. government's official web portal to all federal, state and local government web resources and services.